Aérodrome :
LOGIN :

S'inscrire | Disclaimer

   EN    FR    IT 

 










Légende :    VFR   VFR Marginal   IFR   IFR Intensif   IFR Très Intensif
Visi : 
Plafond : 
>= 8 km
>= 3000ft
5 à 8 km
1000 à 3000 ft
1500m à 5 km
500 à 1000 ft
800 à 1500m
200 à 500 ft
< 800m
< 200 ft
Symboles :   Orages  Brouillard  Fortes neiges  Fortes précipitations  Vent > 20 kt
SIGMETs :   Divers  Orages  Givrage  Turbulence  Onde Orograph.  Cendres Volcan.






- Altitude de l'aérodrome : 13 ft
- Code IATA : CEQ


LFMD - Cannes Mandelieu

DERNIER METAR :
  • 172330Z AUTO 01004KT 340V050 CAVOK 03/00 Q1019

METARs EXPIRÉS :
  • 172300Z AUTO 36005KT 330V030 CAVOK 03/01 Q1019
  • 172230Z AUTO 01004KT 330V050 CAVOK 03/01 Q1018
  • 172200Z AUTO 36004KT 320V030 CAVOK 03/02 Q1018
  • 172130Z AUTO 36005KT CAVOK 03/02 Q1018
  • 172100Z AUTO 36005KT 330V030 CAVOK 03/02 Q1017

TAF TAF LFMD
Valide du 17 à 15h jusqu'au 18 à 15h UTC


171400Z 1715/1815 VRB03KT CAVOK
BECMG 1718/1720 36012KT
BECMG 1807/1809 VRB03KT
ATIS : +33 4 93 48 73 23



MET'MAP, la Météo Aéronautique d'un coup d'oeil ! - Copyright ORBIFLY Décembre 2007 - Disclaimer

ORBIFLY MET'MAP TEAM :

Programmation & Développement : Alexandra Zaïnal
Sur une idée originale de : Baudouin d'Aumeries
Assistance à la programmation : Marc-Olivier Méhu
Soutien technique & logistique : Manuel Goepfert

Contact : metmap@orbifly.com




SOURCES & CREDITS :

   NOAA